This demonstration page uses our WeatherBlox Daily Observations layout. Learn more.

Left ArrowRight Arrow

34.02893, -84.19858

Hourly Observations for August 20, 2020

Temp ( °F °C ) Dew Point ( °F °C ) Humidity (%) Winds ( mph kmh ) Pressure ( in mb ) Visibility ( mi km ) Precip ( " mm )
12:53 am 00:53 Clear 68 20 67 19.4 96 96 Calm 29.91 1013 10 16 0.00 0.00
1:53 am 01:53 Clear 68 20 67 19.4 96 96 Calm 29.91 1013 9 14 0.00 0.00
2:53 am 02:53 Clear 68 20 67 19.4 96 96 Calm 29.90 1012 8 13 0.00 0.00
3:36 am 03:36 Partly Cloudy 68 20 67 19.4 96 96 Calm 29.91 1013 9 14 0.00 0.00
3:53 am 03:53 Partly Cloudy 68 20 67 19.4 96 96 Calm 29.89 1012 7 11 0.00 0.00
4:18 am 04:18 Mostly Cloudy 68 20 68 20 100 100 Calm 29.91 1013 8 13 0.00 0.00
4:53 am 04:53 Partly Cloudy 68 20 68 20 100 100 Calm 29.88 1012 7 11 0.00 0.00
5:53 am 05:53 Clear 68 20 67 19.4 96 96 VRB 5 7 29.89 1012 10 16 0.00 0.00
6:53 am 06:53 Clear 68 20 67 19.4 96 96 Calm 29.92 1013 10 16 0.00 0.00
7:53 am 07:53 Sunny 68 20 67 19.4 96 96 Calm 29.94 1014 9 14 0.00 0.00
8:32 am 08:32 Mostly Sunny 69 20.6 68 20 96 96 VRB 3 6 29.95 1014 10 16 0.00 0.00
8:53 am 08:53 Partly Cloudy 70 21.1 68 20 93 93 Calm 29.95 1014 10 16 0.00 0.00
9:53 am 09:53 Mostly Cloudy 71 21.7 69 20.6 94 94 VRB 5 7 29.96 1015 10 16 0.00 0.00
10:53 am 10:53 Mostly Cloudy 74 23.3 69 20.6 85 85 VRB 5 7 29.98 1015 10 16 0.00 0.00
11:53 am 11:53 Mostly Sunny 77 25 70 21.1 79 79 ESE 6 9 29.96 1014 10 16 0.00 0.00
12:53 pm 12:53 Mostly Sunny 79 26.1 70 21.1 74 74 VRB 6 9 29.95 1014 10 16 0.00 0.00
1:24 pm 13:24 Mostly Cloudy 83 28.3 72 22.2 70 70 VRB 5 7 29.93 1013 10 16 0.00 0.00
1:36 pm 13:36 Partly Cloudy 80 26.7 70 21.1 71 71 VRB 6 9 29.92 1013 10 16 0.00 0.00
1:53 pm 13:53 Partly Cloudy with Thunderstorms 81 27.2 71 21.7 72 72 VRB 3 6 29.92 1013 10 16 0.00 0.00
2:12 pm 14:12 Partly Cloudy with Nearby Thunderstorms 79 26.1 70 21.1 74 74 Calm 29.90 1013 10 16 0.00 0.00
2:24 pm 14:24 Mostly Cloudy with Nearby Thunderstorms 75 23.9 71 21.7 88 88 SW 8 13 29.91 1013 3 4 0.04 1.02
2:27 pm 14:27 Mostly Cloudy with Nearby Thunderstorms 75 23.9 72 22.2 90 90 SW 7 11 29.91 1013 2 3 0.07 1.78
2:37 pm 14:37 Cloudy with Light Rain 75 23.9 72 22.2 90 90 VRB 5 7 29.90 1013 3 4 0.09 2.29
2:44 pm 14:44 Cloudy with Light Rain 76 24.4 71 21.7 85 85 Calm 29.90 1012 8 13 0.09 2.29
2:51 pm 14:51 Cloudy with Thunderstorms 75 24 72 22 89 89 VRB 3 6 29.90 1013 10 16 0.09 2.29
2:53 pm 14:53 Cloudy with Thunderstorms 75 23.9 72 22.2 90 90 Calm 29.89 1012 7 11 0.09 2.29
3:00 pm 15:00 Cloudy with Thunderstorms 75 23.9 72 22.2 90 90 NE 3 6 29.89 1012 4 6 0.01 0.25
3:03 pm 15:03 Cloudy with Nearby Thunderstorms 76 24.4 73 22.8 91 91 NNE 5 7 29.89 1012 5 8 0.01 0.25
3:14 pm 15:14 Cloudy with Thunderstorms 78 25.6 73 22.8 85 85 NNE 7 11 29.88 1012 10 16 0.01 0.25
3:29 pm 15:29 Mostly Cloudy with Light Rain 77 25 72 22.2 85 85 NNE 7 11 29.88 1012 10 16 0.01 0.25
3:49 pm 15:49 Partly Cloudy 75 24 72 22 89 89 Calm 29.87 1012 10 16 0.01 0.25
3:53 pm 15:53 Mostly Sunny 75 23.9 71 21.7 88 88 E 5 7 29.87 1012 10 16 0.01 0.25
4:53 pm 16:53 Mostly Cloudy with Light Rain 75 23.9 69 20.6 82 82 VRB 3 6 29.87 1012 10 16 0.00 0.00
5:34 pm 17:34 Partly Cloudy with Nearby Thunderstorms 75 23.9 71 21.7 88 88 Calm 29.89 1012 10 16 0.00 0.00
5:53 pm 17:53 Partly Cloudy with Nearby Thunderstorms 75 23.9 71 21.7 88 88 Calm 29.88 1012 10 16 0.00 0.00
6:18 pm 18:18 Cloudy with Thunderstorms 74 23.3 70 21.1 88 88 VRB 3 6 29.89 1012 7 11 0.00 0.00
6:48 pm 18:48 Cloudy with Nearby Thunderstorms 72 22 68 20 88 88 SSE 8 13 29.91 1013 8 13 0.03 0.76
6:53 pm 18:53 Mostly Cloudy with Nearby Thunderstorms 70 21.1 68 20 93 93 S 7 11 29.91 1013 10 16 0.03 0.76
7:24 pm 19:24 Partly Cloudy with Light Rain 69 20.6 67 19.4 93 93 S 7 11 29.91 1013 6 10 0.03 0.76
7:53 pm 19:53 Mostly Cloudy with Light Rain 68 20 67 19.4 96 96 Calm 29.92 1013 9 14 0.05 1.27
8:39 pm 20:39 Partly Cloudy 68 20 68 20 100 100 VRB 3 6 29.92 1013 10 16 0.00 0.00
8:53 pm 20:53 Mostly Clear 68 20 68 20 100 100 ENE 3 6 29.91 1013 9 14 0.00 0.00
9:53 pm 21:53 Mostly Clear 69 20.6 68 20 96 96 Calm 29.92 1013 10 16 0.00 0.00
10:53 pm 22:53 Partly Cloudy 69 20.6 68 20 96 96 NNE 5 7 29.91 1013 10 16 0.00 0.00
11:41 pm 23:41 Mostly Cloudy 69 20.6 68 20 96 96 Calm 29.93 1014 10 16 0.00 0.00
11:53 pm 23:53 Cloudy 69 20.6 68 20 96 96 VRB 3 6 29.92 1013 10 16 0.00 0.00

Powered by AerisWeather